Home   Weather   Sendai   Past weeks

Flag for Japan Past Weather in Sendai, Japan — Yesterday and Last 2 Weeks

Now
45 °F

Scattered clouds.


Feels Like: 39 °F
Forecast: 25 / 44 °F
Wind: 10 mph from North

Location: Sendai Airport

Current Time: Feb 27, 2017 at 4:29:16 pm

Latest Report: Feb 27, 2017 at 3:00 pm


Visibility: N/A

Pressure: 30.27 "Hg

Humidity: 27%

Dew Point: 12 °F

Location of SendaiLocation

Past Weather in Sendai — Graph

°F

Sendai Temperature Yesterday

Maximum temperature yesterday: 48 °F (at 12:18 pm)
Minimum temperature yesterday: 32 °F (at 6:00 am)
Average temperature yesterday: 42 °F

High & Low Weather Summary for the Past Weeks

 TemperatureHumidityPressure
High61 °F (Feb 17, 1:00 pm)93% (Feb 23, 7:00 am)30.33 "Hg (Feb 23, 7:00 am)
Low25 °F (Feb 14, 6:00 am)20% (Feb 25, 1:00 pm)29.33 "Hg (Feb 20, 7:00 pm)
Average41 °F48%29.97 "Hg
* Reported Feb 12 3:00 pm — Feb 27 3:00 pm, Sendai, Weather by CustomWeather, © 2017

Note: Actual official high and low records may vary slightly from our data, if they occured in-between our weather recording intervals... More about our weather records

Advertising

Sendai Weather History for the Previous 24 Hours

Scroll right to see more
 ConditionsComfort  
Time TempWeatherWind HumidityBarometerVisibility
3:00 pm
Mon, Feb 27
45 °FScattered clouds.10 mph27%30.27 "HgN/A
2:00 pm45 °FScattered clouds.14 mph29%30.24 "HgN/A
1:26 pm45 °FPartly sunny.12 mph29%30.24 "HgN/A
12:43 pm45 °FPartly sunny.9 mph27%30.27 "HgN/A
12:00 pm43 °FPartly sunny.10 mph31%30.27 "HgN/A
11:00 am41 °FPartly sunny.13 mph33%30.30 "HgN/A
10:00 am41 °FScattered clouds.16 mph36%30.30 "HgN/A
9:00 am37 °FPassing clouds.12 mph45%30.30 "HgN/A
8:00 am36 °FScattered clouds.14 mph56%30.30 "HgN/A
7:00 am32 °FPassing clouds.8 mph64%30.30 "HgN/A
6:00 am34 °FPassing clouds.8 mph44%30.27 "HgN/A
9:00 pm
Sun, Feb 26
36 °FPassing clouds.7 mph60%30.15 "HgN/A
8:00 pm37 °FPassing clouds.6 mph56%30.15 "HgN/A
7:00 pm37 °FPassing clouds.9 mph56%30.12 "HgN/A
6:00 pm41 °FPassing clouds.15 mph45%30.09 "HgN/A
5:00 pm43 °FBroken clouds.15 mph42%30.09 "HgN/A
4:00 pm46 °FBroken clouds.15 mph37%30.04 "HgN/A
Weather by CustomWeather, © 2017

See weather overviewHow to use our weather pages